User: anonymous
Location: NC_16_and_73
(35.4490°N, 81.0150°W)
Time: 08:18:01
(UTC-04:00)
Language:

Cosmos-2242 - Orbit

View from above orbital plane
View from above orbital plane
View from above satellite
View from above satellite

Ground track
Ground track

The orbit data is extracted from the following two-line orbital elements,

1 22626U 93024A   14110.77750559  .00003307  00000-0  37690-3 0   664
2 22626 082.5246 048.0159 0019307 350.3714 009.7129 14.85753370134747
Epoch (UTC): 20 April 2014 18:39:36
Eccentricity: 0.0019307
inclination: 82.5246°
perigee height: 598 km
apogee height: 625 km
right ascension of ascending node: 48.0159°
argument of perigee: 350.3714°
revolutions per day: 14.85753370
mean anomaly at epoch: 9.7129°
orbit number at epoch: 13474

The dashed part of the orbit path shows where the satellite is in the earth's shadow,  

DLR